CDT,Max TemperatureF,Mean TemperatureF,Min TemperatureF,Max Dew PointF,MeanDew PointF,Min DewpointF,Max Humidity, Mean Humidity, Min Humidity, Max Sea Level PressureIn, Mean Sea Level PressureIn, Min Sea Level PressureIn, Max VisibilityMiles, Mean VisibilityMiles, Min VisibilityMiles, Max Wind SpeedMPH, Mean Wind SpeedMPH, Max Gust SpeedMPH,PrecipitationIn, CloudCover, Events, WindDirDegrees
2012-10-1,75,66,57,50,47,41,75,55,38,29.90,29.85,29.81,10,10,10,14,8,23,0.00,0,,339
2012-10-2,73,60,46,48,43,40,77,56,32,29.95,29.91,29.86,10,10,10,12,8,18,0.00,0,,315
2012-10-3,77,60,45,50,45,41,93,59,31,29.97,29.93,29.89,10,10,10,14,5,20,0.00,0,,181
2012-10-4,61,54,48,52,44,37,80,69,58,30.25,30.16,29.99,10,10,10,18,9,24,0.03,5,Rain,343
2012-10-5,53,43,34,43,34,30,85,67,48,30.32,30.28,30.25,10,10,10,22,9,29,0.00,5,,2
2012-10-6,45,40,36,35,28,21,83,59,40,30.37,30.33,30.30,10,10,9,15,7,20,0.00,5,Snow,325
2012-10-7,55,42,30,29,26,21,82,58,29,30.35,30.27,30.17,10,10,9,9,5,,0.00,1,Snow,251
2012-10-8,62,48,34,37,32,28,79,57,35,30.17,30.07,29.98,10,10,10,21,10,29,0.00,0,,186
2012-10-9,64,52,41,48,40,30,82,64,51,30.15,29.97,29.90,10,10,10,17,11,24,0.00,2,,231
2012-10-10,62,48,35,34,29,26,76,54,25,30.31,30.22,30.15,10,10,10,8,3,,0.00,0,,188
2012-10-11,72,55,41,56,45,33,81,66,54,30.17,30.11,30.04,10,10,8,13,7,,0.00,5,Rain,149
2012-10-12,61,56,50,56,43,31,97,68,46,30.30,30.19,30.07,10,9,5,16,12,22,0.08,7,Rain,90
2012-10-13,68,62,57,66,62,55,100,93,84,30.07,29.85,29.65,10,5,1,20,13,30,0.84,8,Rain-Thunderstorm,165
2012-10-14,68,60,51,61,53,40,94,76,37,30.01,29.75,29.55,10,10,10,25,12,32,0.01,4,,262
2012-10-15,75,59,45,52,47,41,86,65,41,30.02,29.94,29.82,10,10,10,8,5,,0.00,0,,151
2012-10-16,79,68,57,52,50,48,78,55,39,29.80,29.63,29.51,10,10,10,25,14,37,0.00,0,,190
2012-10-17,64,57,48,57,47,28,87,67,37,29.68,29.53,29.44,10,10,8,16,9,28,0.04,3,Rain,239
2012-10-18,60,53,46,36,28,24,59,41,27,29.71,29.68,29.64,10,10,8,28,15,39,0.00,3,Rain,274
2012-10-19,53,50,43,41,38,35,86,64,54,29.84,29.77,29.67,10,10,10,25,14,36,0.00,7,,305
2012-10-20,70,54,37,44,40,35,93,64,35,29.86,29.80,29.72,10,10,9,13,5,17,0.00,0,,109
2012-10-21,75,64,53,66,59,46,86,76,65,29.82,29.77,29.73,10,9,7,16,10,24,0.00,3,,154
2012-10-22,78,74,69,67,65,63,87,77,65,29.83,29.78,29.71,10,10,8,22,15,30,0.00,3,,183
2012-10-23,78,73,68,65,65,63,87,77,64,29.83,29.77,29.70,10,10,9,21,14,32,0.00,5,,178
2012-10-24,82,74,66,67,64,58,90,74,60,29.82,29.77,29.71,10,10,10,21,15,32,0.00,2,,177
2012-10-25,70,54,37,63,44,29,94,79,65,30.30,29.93,29.62,10,9,2,25,19,36,0.09,8,Rain,314
2012-10-26,46,38,30,28,27,25,82,65,51,30.49,30.42,30.33,10,10,10,17,14,24,0.00,4,,351
2012-10-27,46,34,24,30,25,21,89,71,46,30.44,30.37,30.29,10,10,8,8,6,,0.00,0,,16
2012-10-28,52,40,28,30,27,25,89,61,38,30.37,30.30,30.26,10,10,6,6,3,,0.00,1,Snow,97
2012-10-29,57,47,39,31,28,26,65,52,37,30.32,30.23,30.12,10,10,6,14,8,20,0.00,4,,134
2012-10-30,57,46,37,32,29,27,73,54,35,30.12,30.04,29.99,10,10,4,13,7,18,0.00,3,,87
2012-10-31,60,46,33,33,30,27,78,56,35,30.10,30.05,30.01,10,10,8,7,3,,0.00,0,,337